TA77 MGGT-MROC

Flight info

Callsign TA77
Flight time 1h 11m
Altitude 35000
Route KAPAN2A KAPAN UG436 LIB BARRA4L
Aircraft B38M/M-SDE1FGHILORVWXY/HB1

Departure

Time 2026-04-21 13:26
Airport La Aurora International Airport (MGGT)

Arrival

Time 2026-04-21 14:37
Airport Juan Santamaría International Airport (MROC)
Time Latitude Longitude Altitude Speed Heading
2026-04-21 13:09 14.59156 -90.52692 4927 ft 2 kts 195°
2026-04-21 13:09 14.59169 -90.52687 4927 ft 0 kts 202°
2026-04-21 13:09 14.59170 -90.52687 4927 ft 0 kts 201°
2026-04-21 13:17 14.59148 -90.52696 4926 ft 11 kts 200°
2026-04-21 13:17 14.59071 -90.52720 4924 ft 13 kts 196°
2026-04-21 13:18 14.58987 -90.52745 4920 ft 12 kts 196°
2026-04-21 13:18 14.58911 -90.52767 4918 ft 11 kts 196°
2026-04-21 13:18 14.58823 -90.52793 4915 ft 12 kts 196°
2026-04-21 13:18 14.58742 -90.52811 4912 ft 10 kts 177°
2026-04-21 13:19 14.58701 -90.52801 4911 ft 3 kts 156°
2026-04-21 13:19 14.58697 -90.52799 4911 ft 0 kts 154°
2026-04-21 13:19 14.58696 -90.52799 4910 ft 1 kts 154°
2026-04-21 13:20 14.58683 -90.52791 4910 ft 4 kts 146°
2026-04-21 13:20 14.58622 -90.52755 4909 ft 10 kts 162°
2026-04-21 13:20 14.58587 -90.52747 4907 ft 2 kts 170°
2026-04-21 13:20 14.58506 -90.52755 4904 ft 19 kts 193°
2026-04-21 13:21 14.58365 -90.52796 4897 ft 22 kts 198°
2026-04-21 13:21 14.58203 -90.52853 4888 ft 23 kts 198°
2026-04-21 13:21 14.58040 -90.52907 4886 ft 25 kts 197°
2026-04-21 13:21 14.57865 -90.52962 4886 ft 26 kts 197°
2026-04-21 13:22 14.57703 -90.53014 4890 ft 20 kts 197°
2026-04-21 13:22 14.57570 -90.53056 4892 ft 16 kts 197°
2026-04-21 13:22 14.57464 -90.53091 4893 ft 16 kts 197°
2026-04-21 13:22 14.57352 -90.53127 4892 ft 13 kts 197°
2026-04-21 13:23 14.57258 -90.53156 4890 ft 16 kts 197°
2026-04-21 13:23 14.57152 -90.53193 4885 ft 11 kts 199°
2026-04-21 13:23 14.57091 -90.53207 4883 ft 7 kts 179°
2026-04-21 13:23 14.57066 -90.53204 4883 ft 0 kts 167°
2026-04-21 13:24 14.57065 -90.53204 4883 ft 0 kts 166°
2026-04-21 13:24 14.57062 -90.53200 4883 ft 1 kts 109°
2026-04-21 13:24 14.57058 -90.53173 4884 ft 4 kts 94°
2026-04-21 13:25 14.57065 -90.53153 4884 ft 2 kts 40°
2026-04-21 13:25 14.57157 -90.53123 4887 ft 32 kts 16°
2026-04-21 13:25 14.57637 -90.52969 4893 ft 113 kts 17°
2026-04-21 13:25 14.58637 -90.52651 4980 ft 175 kts 18°
2026-04-21 13:26 14.59821 -90.52286 5718 ft 189 kts 17°
2026-04-21 13:26 14.61120 -90.51872 6450 ft 199 kts 19°
2026-04-21 13:26 14.62429 -90.51427 7131 ft 199 kts 20°
2026-04-21 13:26 14.63728 -90.50917 7688 ft 204 kts 28°
2026-04-21 13:27 14.64929 -90.50031 8131 ft 214 kts 41°
2026-04-21 13:27 14.65967 -90.48978 8832 ft 211 kts 47°
2026-04-21 13:27 14.67070 -90.47963 9336 ft 218 kts 35°
2026-04-21 13:27 14.68338 -90.47031 9669 ft 232 kts 40°
2026-04-21 13:28 14.69533 -90.45782 9946 ft 253 kts 52°
2026-04-21 13:28 14.70473 -90.44199 10342 ft 271 kts 65°
2026-04-21 13:28 14.70999 -90.42255 11046 ft 290 kts 82°
2026-04-21 13:28 14.71035 -90.40180 12020 ft 293 kts 93°
2026-04-21 13:29 14.70729 -90.38096 12825 ft 297 kts 102°
2026-04-21 13:29 14.70113 -90.36057 13585 ft 305 kts 111°
2026-04-21 13:29 14.69105 -90.34097 14132 ft 321 kts 123°
2026-04-21 13:29 14.67604 -90.32328 14735 ft 340 kts 136°
2026-04-21 13:30 14.64091 -90.29853 15959 ft 369 kts 152°
2026-04-21 13:30 14.61744 -90.28745 16846 ft 377 kts 156°
2026-04-21 13:30 14.59284 -90.27723 17739 ft 384 kts 157°
2026-04-21 13:31 14.56790 -90.26730 18670 ft 388 kts 158°
2026-04-21 13:31 14.54262 -90.25722 19565 ft 393 kts 157°
2026-04-21 13:31 14.51722 -90.24690 20435 ft 397 kts 157°
2026-04-21 13:31 14.49123 -90.23617 21295 ft 401 kts 156°
2026-04-21 13:32 14.46553 -90.22546 22094 ft 406 kts 156°
2026-04-21 13:32 14.43933 -90.21446 22918 ft 409 kts 156°
2026-04-21 13:32 14.41254 -90.20320 23732 ft 413 kts 157°
2026-04-21 13:32 14.38596 -90.19200 24526 ft 417 kts 157°
2026-04-21 13:33 14.35900 -90.18064 25245 ft 422 kts 157°
2026-04-21 13:33 14.33172 -90.16915 26107 ft 423 kts 157°
2026-04-21 13:33 14.30527 -90.15673 27183 ft 417 kts 152°
2026-04-21 13:33 14.28076 -90.14120 28010 ft 417 kts 144°
2026-04-21 13:34 14.25879 -90.12177 28456 ft 419 kts 136°
2026-04-21 13:34 14.23876 -90.09982 28834 ft 414 kts 132°
2026-04-21 13:34 14.22018 -90.07735 29197 ft 419 kts 130°
2026-04-21 13:34 14.20144 -90.05373 29458 ft 432 kts 129°
2026-04-21 13:35 14.18210 -90.02914 29716 ft 445 kts 129°
2026-04-21 13:35 14.16249 -90.00427 29998 ft 457 kts 130°
2026-04-21 13:35 14.14202 -89.97855 30379 ft 465 kts 130°
2026-04-21 13:35 14.12143 -89.95283 30754 ft 469 kts 130°
2026-04-21 13:36 14.10057 -89.92690 31134 ft 466 kts 130°
2026-04-21 13:36 14.07996 -89.90137 31512 ft 466 kts 130°
2026-04-21 13:36 14.05923 -89.87577 31892 ft 466 kts 130°
2026-04-21 13:36 14.03862 -89.85026 32270 ft 465 kts 130°
2026-04-21 13:37 14.01800 -89.82430 32655 ft 464 kts 130°
2026-04-21 13:37 13.99786 -89.79868 33060 ft 463 kts 130°
2026-04-21 13:37 13.97754 -89.77271 33491 ft 462 kts 129°
2026-04-21 13:37 13.95747 -89.74702 33920 ft 461 kts 129°
2026-04-21 13:38 13.93722 -89.72115 34354 ft 461 kts 129°
2026-04-21 13:38 13.91690 -89.69521 34791 ft 461 kts 129°
2026-04-21 13:38 13.89663 -89.66935 35103 ft 463 kts 130°
2026-04-21 13:38 13.87622 -89.64337 35099 ft 460 kts 129°
2026-04-21 13:39 13.83602 -89.59225 35087 ft 457 kts 130°
2026-04-21 13:39 13.79607 -89.54153 35088 ft 458 kts 130°
2026-04-21 13:40 13.75593 -89.49062 35084 ft 457 kts 129°
2026-04-21 13:40 13.71584 -89.43982 35104 ft 457 kts 130°
2026-04-21 13:41 13.67564 -89.38890 35103 ft 456 kts 130°
2026-04-21 13:41 13.63572 -89.33838 35101 ft 456 kts 130°
2026-04-21 13:42 13.59582 -89.28791 35086 ft 457 kts 130°
2026-04-21 13:42 13.55567 -89.23715 35064 ft 456 kts 130°
2026-04-21 13:43 13.51555 -89.18646 35030 ft 457 kts 130°
2026-04-21 13:43 13.47545 -89.13583 35013 ft 456 kts 130°
2026-04-21 13:44 13.43509 -89.08504 35007 ft 460 kts 130°
2026-04-21 13:44 13.39435 -89.03387 35007 ft 468 kts 130°
2026-04-21 13:45 13.35311 -88.98177 35002 ft 474 kts 129°
2026-04-21 13:45 13.31134 -88.92886 35005 ft 478 kts 129°
2026-04-21 13:46 13.26944 -88.87574 34990 ft 480 kts 129°
2026-04-21 13:46 13.22743 -88.82250 34988 ft 482 kts 129°
2026-04-21 13:47 13.18525 -88.76906 34986 ft 482 kts 129°
2026-04-21 13:47 13.14298 -88.71555 34980 ft 483 kts 129°
2026-04-21 13:48 13.10051 -88.66182 34983 ft 483 kts 129°
2026-04-21 13:48 13.05843 -88.60862 34967 ft 483 kts 129°
2026-04-21 13:49 13.01586 -88.55484 34972 ft 483 kts 129°
2026-04-21 13:49 12.97354 -88.50142 34967 ft 483 kts 129°
2026-04-21 13:50 12.93121 -88.44801 34967 ft 483 kts 129°
2026-04-21 13:50 12.88871 -88.39441 34967 ft 483 kts 129°
2026-04-21 13:51 12.84644 -88.34113 34966 ft 483 kts 129°
2026-04-21 13:51 12.80406 -88.28774 34967 ft 484 kts 129°
2026-04-21 13:52 12.76161 -88.23430 34967 ft 484 kts 129°
2026-04-21 13:52 12.71912 -88.18082 34966 ft 484 kts 129°
2026-04-21 13:53 12.67724 -88.12785 34964 ft 473 kts 129°
2026-04-21 13:53 12.65684 -88.10202 34965 ft 457 kts 129°
2026-04-21 13:53 12.63695 -88.07685 34967 ft 451 kts 129°
2026-04-21 13:54 12.59725 -88.02679 34966 ft 456 kts 129°
2026-04-21 13:54 12.55714 -87.97634 34967 ft 456 kts 129°
2026-04-21 13:55 12.51720 -87.92625 34969 ft 457 kts 129°
2026-04-21 13:55 12.47707 -87.87598 34969 ft 457 kts 129°
2026-04-21 13:56 12.43675 -87.82552 34975 ft 456 kts 129°
2026-04-21 13:56 12.39660 -87.77527 34978 ft 456 kts 129°
2026-04-21 13:57 12.35657 -87.72521 34977 ft 457 kts 129°
2026-04-21 13:57 12.31619 -87.67474 34980 ft 457 kts 129°
2026-04-21 13:58 12.27616 -87.62473 34984 ft 457 kts 129°
2026-04-21 13:58 12.23590 -87.57447 34987 ft 457 kts 129°
2026-04-21 13:59 12.19575 -87.52437 34987 ft 456 kts 129°
2026-04-21 13:59 12.15542 -87.47406 34987 ft 457 kts 129°
2026-04-21 14:00 12.11498 -87.42366 34988 ft 457 kts 129°
2026-04-21 14:00 12.07459 -87.37334 34987 ft 457 kts 129°
2026-04-21 14:01 12.03445 -87.32336 34987 ft 456 kts 129°
2026-04-21 14:01 11.99412 -87.27317 34988 ft 457 kts 129°
2026-04-21 14:02 11.95386 -87.22310 34987 ft 457 kts 129°
2026-04-21 14:03 11.89344 -87.14799 34987 ft 456 kts 129°
2026-04-21 14:03 11.85314 -87.09792 34987 ft 457 kts 129°
2026-04-21 14:04 11.81282 -87.04787 34987 ft 455 kts 129°
2026-04-21 14:04 11.77256 -86.99790 34987 ft 456 kts 129°
2026-04-21 14:05 11.73229 -86.94795 34987 ft 456 kts 129°
2026-04-21 14:05 11.69200 -86.89802 34987 ft 455 kts 129°
2026-04-21 14:06 11.65177 -86.84816 34987 ft 456 kts 129°
2026-04-21 14:06 11.61128 -86.79802 34987 ft 455 kts 129°
2026-04-21 14:07 11.57086 -86.74801 34987 ft 455 kts 129°
2026-04-21 14:07 11.53077 -86.69840 34987 ft 455 kts 129°
2026-04-21 14:08 11.49053 -86.64861 34987 ft 455 kts 129°
2026-04-21 14:08 11.45013 -86.59866 34987 ft 454 kts 129°
2026-04-21 14:09 11.41011 -86.54921 34987 ft 455 kts 129°
2026-04-21 14:09 11.36975 -86.49940 34987 ft 454 kts 129°
2026-04-21 14:10 11.32975 -86.45008 34987 ft 454 kts 129°
2026-04-21 14:10 11.28921 -86.40011 34987 ft 455 kts 129°
2026-04-21 14:11 11.24911 -86.35071 34988 ft 455 kts 129°
2026-04-21 14:11 11.20877 -86.30101 34989 ft 453 kts 129°
2026-04-21 14:12 11.16850 -86.25138 34991 ft 454 kts 129°
2026-04-21 14:12 11.12819 -86.20173 34989 ft 453 kts 129°
2026-04-21 14:13 11.08812 -86.15242 34989 ft 453 kts 129°
2026-04-21 14:13 11.04795 -86.10300 34985 ft 453 kts 129°
2026-04-21 14:14 11.00757 -86.05337 34988 ft 453 kts 129°
2026-04-21 14:14 10.96736 -86.00397 34987 ft 452 kts 129°
2026-04-21 14:15 10.92720 -85.95465 34986 ft 452 kts 129°
2026-04-21 14:15 10.88727 -85.90566 34986 ft 452 kts 129°
2026-04-21 14:16 10.84694 -85.85661 34990 ft 453 kts 129°
2026-04-21 14:16 10.80572 -85.80785 34991 ft 453 kts 130°
2026-04-21 14:17 10.76442 -85.75938 34984 ft 453 kts 129°
2026-04-21 14:17 10.72400 -85.71010 34979 ft 454 kts 128°
2026-04-21 14:18 10.68438 -85.66040 34988 ft 453 kts 128°
2026-04-21 14:18 10.64475 -85.61053 34995 ft 454 kts 128°
2026-04-21 14:19 10.60562 -85.56008 34992 ft 453 kts 124°
2026-04-21 14:19 10.57334 -85.50541 34890 ft 453 kts 117°
2026-04-21 14:19 10.55884 -85.47702 34490 ft 458 kts 116°
2026-04-21 14:20 10.54457 -85.44782 34244 ft 459 kts 115°
2026-04-21 14:20 10.51687 -85.38983 33667 ft 460 kts 115°
2026-04-21 14:20 10.50320 -85.36101 33052 ft 453 kts 114°
2026-04-21 14:21 10.48964 -85.33250 32468 ft 448 kts 114°
2026-04-21 14:21 10.47603 -85.30396 31845 ft 444 kts 114°
2026-04-21 14:21 10.46271 -85.27616 31228 ft 440 kts 114°
2026-04-21 14:21 10.44932 -85.24831 30612 ft 436 kts 114°
2026-04-21 14:22 10.43623 -85.22118 30008 ft 431 kts 114°
2026-04-21 14:22 10.42297 -85.19375 29382 ft 428 kts 114°
2026-04-21 14:22 10.40997 -85.16690 28800 ft 423 kts 113°
2026-04-21 14:22 10.39704 -85.14020 28209 ft 419 kts 114°
2026-04-21 14:23 10.38431 -85.11396 27623 ft 414 kts 114°
2026-04-21 14:23 10.37172 -85.08800 27080 ft 409 kts 114°
2026-04-21 14:23 10.35913 -85.06206 26484 ft 405 kts 114°
2026-04-21 14:23 10.34680 -85.03667 25921 ft 401 kts 114°
2026-04-21 14:24 10.33468 -85.01170 25353 ft 396 kts 114°
2026-04-21 14:24 10.32248 -84.98657 24795 ft 392 kts 114°
2026-04-21 14:24 10.31054 -84.96198 24229 ft 387 kts 114°
2026-04-21 14:24 10.29870 -84.93760 23652 ft 383 kts 114°
2026-04-21 14:25 10.28705 -84.91361 23121 ft 379 kts 115°
2026-04-21 14:25 10.27545 -84.88975 22571 ft 374 kts 115°
2026-04-21 14:25 10.26418 -84.86657 22041 ft 371 kts 115°
2026-04-21 14:25 10.25274 -84.84304 21463 ft 368 kts 115°
2026-04-21 14:26 10.24145 -84.81982 20874 ft 367 kts 115°
2026-04-21 14:26 10.23034 -84.79698 20307 ft 364 kts 115°
2026-04-21 14:26 10.21906 -84.77381 19674 ft 364 kts 115°
2026-04-21 14:26 10.20790 -84.75088 19081 ft 362 kts 115°
2026-04-21 14:27 10.19696 -84.72840 18524 ft 358 kts 115°
2026-04-21 14:27 10.18592 -84.70572 17907 ft 357 kts 115°
2026-04-21 14:27 10.17505 -84.68335 17306 ft 355 kts 115°
2026-04-21 14:27 10.16407 -84.66081 16755 ft 351 kts 115°
2026-04-21 14:28 10.15292 -84.63971 16128 ft 338 kts 120°
2026-04-21 14:28 10.13864 -84.62142 15572 ft 325 kts 135°
2026-04-21 14:28 10.12074 -84.60809 14912 ft 318 kts 146°
2026-04-21 14:28 10.10156 -84.59665 14101 ft 315 kts 148°
2026-04-21 14:29 10.08259 -84.58586 13281 ft 312 kts 148°
2026-04-21 14:29 10.06401 -84.57519 12523 ft 307 kts 147°
2026-04-21 14:29 10.04573 -84.56444 11835 ft 301 kts 147°
2026-04-21 14:29 10.02791 -84.55379 11328 ft 289 kts 146°
2026-04-21 14:30 10.01112 -84.54367 10886 ft 277 kts 146°
2026-04-21 14:30 9.99497 -84.53390 10679 ft 258 kts 145°
2026-04-21 14:30 9.97983 -84.52472 10391 ft 253 kts 146°
2026-04-21 14:30 9.96450 -84.51537 9774 ft 262 kts 145°
2026-04-21 14:31 9.94880 -84.50580 9167 ft 269 kts 146°
2026-04-21 14:31 9.93275 -84.49608 8901 ft 260 kts 146°
2026-04-21 14:31 9.91820 -84.48646 8891 ft 241 kts 139°
2026-04-21 14:31 9.90749 -84.47433 8838 ft 219 kts 115°
2026-04-21 14:32 9.90402 -84.46010 8730 ft 204 kts 89°
2026-04-21 14:32 9.90555 -84.44607 8606 ft 194 kts 76°
2026-04-21 14:32 9.90966 -84.43288 8249 ft 201 kts 69°
2026-04-21 14:32 9.91494 -84.41944 7647 ft 215 kts 68°
2026-04-21 14:33 9.92055 -84.40509 6999 ft 226 kts 69°
2026-04-21 14:33 9.92627 -84.38995 6301 ft 237 kts 69°
2026-04-21 14:33 9.93204 -84.37455 5808 ft 224 kts 69°
2026-04-21 14:33 9.93725 -84.36062 5439 ft 205 kts 69°
2026-04-21 14:34 9.94202 -84.34757 5127 ft 187 kts 70°
2026-04-21 14:34 9.94603 -84.33612 5142 ft 157 kts 71°
2026-04-21 14:34 9.94955 -84.32587 5078 ft 147 kts 71°
2026-04-21 14:34 9.95289 -84.31619 4963 ft 148 kts 70°
2026-04-21 14:35 9.95641 -84.30653 4870 ft 145 kts 68°
2026-04-21 14:35 9.96040 -84.29700 4654 ft 148 kts 66°
2026-04-21 14:35 9.96450 -84.28743 4480 ft 147 kts 67°
2026-04-21 14:35 9.96857 -84.27783 4264 ft 148 kts 68°
2026-04-21 14:36 9.97209 -84.26803 4006 ft 147 kts 70°
2026-04-21 14:36 9.97565 -84.25835 3774 ft 145 kts 69°
2026-04-21 14:36 9.97917 -84.24896 3557 ft 143 kts 69°
2026-04-21 14:36 9.98266 -84.23959 3357 ft 141 kts 73°
2026-04-21 14:37 9.98594 -84.23031 3164 ft 138 kts 69°
2026-04-21 14:37 9.98935 -84.22126 2999 ft 134 kts 71°
2026-04-21 14:37 9.99235 -84.21298 2981 ft 113 kts 70°
2026-04-21 14:37 9.99424 -84.20795 3005 ft 43 kts 69°
2026-04-21 14:38 9.99516 -84.20551 3018 ft 33 kts 69°
2026-04-21 14:38 9.99593 -84.20344 3029 ft 28 kts 70°
2026-04-21 14:38 9.99647 -84.20200 3037 ft 12 kts 70°
2026-04-21 14:38 9.99690 -84.20152 3040 ft 8 kts 19°
2026-04-21 14:39 9.99748 -84.20187 3041 ft 15 kts 270°
2026-04-21 14:39 9.99715 -84.20270 3037 ft 8 kts 247°
2026-04-21 14:39 9.99732 -84.20307 3036 ft 3 kts 335°
2026-04-21 14:39 9.99749 -84.20315 3036 ft 1 kts 338°
2026-04-21 14:40 9.99756 -84.20317 3036 ft 0 kts 339°